Change the Weather History Date:

Saturday, December 8, 2012

  Actual Average Record
Temperature  
Mean Temperature 42 °F -  
Max Temperature 48 °F - - ()
Min Temperature 35 °F - - ()
Degree Days  
Heating Degree Days 24    
Moisture  
Dew Point 36 °F    
Average Humidity 79    
Maximum Humidity 100    
Minimum Humidity 61    
Precipitation  
Precipitation 0.00 in - - ()
Sea Level Pressure  
Sea Level Pressure 30.15 in    
Wind  
Wind Speed 8 mph ()    
Max Wind Speed 18 mph    
Max Gust Speed 31 mph    
Visibility 6.7 miles    
Events Rain    
T = Trace of Precipitation, MM = Missing Value Source: Averaged Metar Reports

Daily Weather History Graph

Daily Weather History Graph

Search for Another Location

Airport or City:

Trip Planner

Search our weather history database for the weather conditions in past years. The results will help you decide how hot, cold, wet, or windy it might be!

Date:

Astronomy

Dec. 08, 2012 Rise Set
Actual Time 8:09 AM GMT 3:43 PM GMT
Civil Twilight 7:26 AM GMT 4:26 PM GMT
Nautical Twilight 6:41 AM GMT 5:12 PM GMT
Astronomical Twilight 5:58 AM GMT 5:55 PM GMT
Moon 1:34 AM GMT (12/8) 12:44 PM GMT (12/8)
Length of Visible Light 9h 00m
Length of Day
7h 34m
Waning Crescent, 30% of the Moon is Illuminated
Dec 8
Waning Crescent
Dec 13
New
Dec 20
First Quarter
Dec 28
Full
Jan 5
Last Quarter

Hourly Weather History & Observations

Time (GMT) Temp. Windchill Dew Point Humidity Pressure Visibility Wind Dir Wind Speed Gust Speed Precip Events Conditions
12:50 AM 35.6 °F 30.7 °F 35.6 °F 100% 30.06 in 6.2 mi NW 5.8 mph - N/A   Mostly Cloudy
1:50 AM 37.4 °F 32.1 °F 35.6 °F 93% 30.09 in 6.2 mi NW 6.9 mph - N/A   Mostly Cloudy
2:50 AM 40 °F - 36 °F 82% 30.12 in 22 mi NW 11.5 mph - -   Mostly Cloudy
2:50 AM 39.2 °F 32.0 °F 35.6 °F 87% 30.09 in 6.2 mi NW 11.5 mph - N/A   Scattered Clouds
4:50 AM 41.0 °F 36.4 °F 35.6 °F 81% 30.15 in 6.2 mi NW 6.9 mph - N/A   Mostly Cloudy
5:50 AM 38 °F - 33 °F 76% 30.17 in 19 mi West 4.6 mph - -  
5:50 AM 39.2 °F 35.9 °F 33.8 °F 81% 30.15 in 6.2 mi West 4.6 mph - N/A   Partly Cloudy
6:50 AM 35.6 °F 30.7 °F 32.0 °F 87% 30.18 in 6.2 mi West 5.8 mph - N/A   Unknown
7:50 AM 35.6 °F 29.2 °F 30.2 °F 81% 30.21 in 6.2 mi West 8.1 mph - N/A   Unknown
8:50 AM 35 °F - 30 °F 74% 30.22 in 7 mi West 8.1 mph - -  
8:50 AM 35.6 °F 29.2 °F 30.2 °F 81% 30.21 in 6.2 mi West 8.1 mph - N/A   Unknown
9:50 AM 37.4 °F 33.8 °F 32.0 °F 81% 30.21 in 5.0 mi WNW 4.6 mph - N/A   Haze
10:50 AM 39.2 °F 33.6 °F 32.0 °F 75% 30.21 in 6.2 mi West 8.1 mph - N/A   Unknown
11:50 AM 41 °F - 32 °F 61% 30.22 in 6 mi West 9.2 mph - -  
11:50 AM 41.0 °F 35.2 °F 32.0 °F 70% 30.21 in 6.2 mi West 9.2 mph - N/A   Unknown
12:50 PM 42.8 °F 37.5 °F 33.8 °F 70% 30.21 in 6.2 mi West 9.2 mph - N/A   Mostly Cloudy
1:50 PM 42.8 °F 37.5 °F 32.0 °F 66% 30.18 in 6.2 mi West 9.2 mph - N/A   Mostly Cloudy
2:50 PM 43 °F - 36 °F 69% 30.19 in 5 mi West 8.1 mph - - Rain Light Rain Showers
2:50 PM 42.8 °F 38.0 °F 35.6 °F 76% 30.18 in 5.0 mi West 8.1 mph - N/A Rain Light Rain Showers
3:50 PM 44.6 °F 40.7 °F 37.4 °F 76% 30.18 in 6.2 mi West 6.9 mph - N/A   Mostly Cloudy
4:50 PM 42.8 °F 38.0 °F 39.2 °F 87% 30.15 in 5.0 mi WSW 8.1 mph - N/A   Haze
5:50 PM 45 °F - 40 °F 77% 30.16 in 6 mi WSW 10.4 mph - -   Light Haze
5:50 PM 44.6 °F 39.2 °F 41.0 °F 87% 30.15 in 5.6 mi WSW 10.4 mph - N/A   Haze
6:50 PM 44.6 °F 39.7 °F 41.0 °F 87% 30.15 in 6.2 mi West 9.2 mph - N/A   Overcast
7:50 PM 48.2 °F - 42.8 °F 82% 30.12 in 6.2 mi West 13.8 mph - N/A   Overcast
8:50 PM 48 °F - 43 °F 78% 30.13 in 8 mi West 13.8 mph - -   Mostly Cloudy
8:50 PM 48.2 °F - 42.8 °F 82% 30.12 in 6.2 mi West 13.8 mph - N/A   Mostly Cloudy
9:50 PM 48.2 °F - 42.8 °F 82% 30.12 in 6.2 mi West 13.8 mph - N/A   Mostly Cloudy
10:50 PM 48.2 °F - 42.8 °F 82% 30.09 in 6.2 mi West 16.1 mph - N/A   Mostly Cloudy
11:50 PM 48 °F - 40 °F 65% 30.08 in 11 mi West 18.4 mph - -   Scattered Clouds
11:50 PM 48.2 °F - 39.2 °F 71% 30.06 in 6.2 mi West 18.4 mph 31.1 mph N/A   Mostly Cloudy